Location: New Town
(33.2710°N, 90.7534°W)
Time: 11:57:46
(UTC+00:00)

Explorer 11/Cluster Stage 4 - Pass Details

Date: 18 May 2021
Orbit: 467 x 1257 km, 28.8° (Epoch: 14 June)

Event Time Altitude Azimuth Distance (km) Brightness Sun altitude
Rises 06:26:41 0° 269° (W) 4,186 - -36.7°
Reaches altitude 10° 06:30:38 10° 253° (WSW) 3,171 - -36.6°
Maximum altitude 06:35:53 19° 212° (SSW) 2,432 - -36.4°
Drops below altitude 10° 06:40:45 10° 170° (S) 2,894 - -36.2°
Sets 06:44:09 0° 153° (SSE) 3,706 - -36.0°
